TimeEDT,TemperatureF,Dew PointF,Humidity,Sea Level PressureIn,VisibilityMPH,Wind Direction,Wind SpeedMPH,Gust SpeedMPH,PrecipitationIn,Events,Conditions,WindDirDegrees,DateUTC
12:56 AM,63.0,60.1,90,30.05,6.0,Calm,Calm,-,N/A,,Clear,0,2012-10-06 04:56:00
1:56 AM,61.0,59.0,93,30.04,6.0,WSW,3.5,-,N/A,,Clear,250,2012-10-06 05:56:00
2:56 AM,61.0,59.0,93,30.02,4.0,Calm,Calm,-,0.01,,Clear,0,2012-10-06 06:56:00
3:56 AM,59.0,57.0,93,30.01,10.0,Calm,Calm,-,N/A,,Clear,0,2012-10-06 07:56:00
4:56 AM,59.0,57.9,96,30.01,5.0,Calm,Calm,-,N/A,,Clear,0,2012-10-06 08:56:00
5:56 AM,59.0,55.9,90,30.01,9.0,Calm,Calm,-,N/A,,Clear,0,2012-10-06 09:56:00
6:19 AM,59.0,57.2,94,30.00,2.0,Calm,Calm,-,N/A,,Clear,0,2012-10-06 10:19:00
6:44 AM,57.2,55.4,94,30.00,5.0,Calm,Calm,-,N/A,,Clear,0,2012-10-06 10:44:00
6:56 AM,57.9,55.9,93,30.00,4.0,Calm,Calm,-,N/A,,Clear,0,2012-10-06 10:56:00
7:22 AM,57.2,57.2,100,30.00,2.5,Calm,Calm,-,N/A,,Clear,0,2012-10-06 11:22:00
7:44 AM,59.0,57.2,94,30.00,5.0,Calm,Calm,-,N/A,,Clear,0,2012-10-06 11:44:00
7:56 AM,60.1,57.9,93,30.01,4.0,Calm,Calm,-,N/A,,Clear,0,2012-10-06 11:56:00
8:56 AM,69.1,63.0,81,30.01,10.0,West,3.5,-,N/A,,Clear,280,2012-10-06 12:56:00
9:56 AM,73.0,64.0,73,30.01,10.0,West,4.6,-,N/A,,Clear,270,2012-10-06 13:56:00
10:56 AM,77.0,62.1,60,30.01,10.0,WSW,5.8,-,N/A,,Clear,240,2012-10-06 14:56:00
11:56 AM,80.1,61.0,52,29.99,10.0,West,9.2,-,N/A,,Clear,270,2012-10-06 15:56:00
12:56 PM,81.0,61.0,50,29.96,10.0,Variable,4.6,-,N/A,,Clear,0,2012-10-06 16:56:00
1:56 PM,82.0,60.1,47,29.93,10.0,West,6.9,-,N/A,,Partly Cloudy,280,2012-10-06 17:56:00
2:56 PM,82.9,60.1,46,29.93,10.0,SSW,5.8,-,N/A,,Partly Cloudy,210,2012-10-06 18:56:00
3:56 PM,82.0,64.0,54,29.91,10.0,SSW,8.1,-,N/A,,Partly Cloudy,210,2012-10-06 19:56:00
4:56 PM,79.0,64.0,60,29.91,10.0,South,10.4,-,N/A,,Clear,180,2012-10-06 20:56:00
5:56 PM,77.0,64.0,64,29.92,10.0,South,8.1,-,N/A,,Clear,190,2012-10-06 21:56:00
6:56 PM,73.0,64.9,76,29.93,10.0,SSW,3.5,-,N/A,,Clear,200,2012-10-06 22:56:00
7:56 PM,71.1,64.0,78,29.95,10.0,SSW,4.6,-,N/A,,Clear,210,2012-10-06 23:56:00
8:56 PM,71.1,64.0,78,29.96,10.0,South,5.8,-,N/A,,Clear,190,2012-10-07 00:56:00
9:56 PM,71.1,64.9,81,29.97,10.0,SSW,4.6,-,N/A,,Clear,210,2012-10-07 01:56:00
10:56 PM,70.0,64.0,81,29.98,10.0,SW,3.5,-,N/A,,Clear,220,2012-10-07 02:56:00
11:56 PM,69.1,64.0,84,29.96,10.0,SSW,3.5,-,N/A,,Clear,200,2012-10-07 03:56:00